Regional Weather Roundup
Issued by NWS Charleston, WV

Home | Current Version | Previous Version | Text Only | Print | Product List | Glossary Off
Versions: 1 2 3 4 5 6 7 8 9 10 11 12 13 14 15 16 17 18 19 20 21 22 23 24 25 26 27

000
ASUS41 KRLX 201910
RWRRLX
West Virginia Regional Weather Roundup
National Weather Service Charleston WV
300 PM EDT WED SEP 20 2017

Note: "fair" indicates few or no clouds below 12,000 feet with no
significant weather and/or obstructions to visibility.

WVZ003-202000-
Northern Panhandle of West Virginia

CITY           SKY/WX    TMP DP  RH WIND       PRES   REMARKS
WHEELING       CLOUDY    75  65  70 SW3       30.03F
$$

WVZ009-202000-
Northwest West Virginia

CITY           SKY/WX    TMP DP  RH WIND       PRES   REMARKS
PARKERSBURG    MOSUNNY   83  68  60 N5        30.04F
$$

WVZ006-202000-
Western West Virginia

CITY           SKY/WX    TMP DP  RH WIND       PRES   REMARKS
HUNTINGTON     MOSUNNY   83  65  54 NW7       30.02F
$$

WVZ015-202000-
West Central West Virginia

CITY           SKY/WX    TMP DP  RH WIND       PRES   REMARKS
CHARLESTON     MOSUNNY   81  64  56 NW6       30.01F
$$

WVZ022-031-202000-
North Central West Virginia

CITY           SKY/WX    TMP DP  RH WIND       PRES   REMARKS
CLARKSBURG     MOSUNNY   81  62  52 VRB3      30.02F
MORGANTOWN     LGT RAIN  78  67  68 S6        30.04S
$$

WVZ025-035-042-045-202000-
Southern West Virginia

CITY           SKY/WX    TMP DP  RH WIND       PRES   REMARKS
BECKLEY        SUNNY     72  63  73 SW5       30.10F
LOGAN          PTSUNNY   77  64  65 CALM      30.06S
BLUEFIELD      MOSUNNY   74  61  63 VRB7      30.12F
LEWISBURG      MOSUNNY   75  62  64 NE7       30.07F
$$

WVZ047-202000-
Northern Mountains of West Virginia

CITY           SKY/WX    TMP DP  RH WIND       PRES   REMARKS
ELKINS         PTSUNNY   77  61  57 MISG      30.07F
$$

WVZ052-202000-
Eastern Panhandle of West Virginia

CITY           SKY/WX    TMP DP  RH WIND       PRES   REMARKS
MARTINSBURG    SUNNY     87  57  35 VRB6      29.96F
PETERSBURG     CLOUDY    89  62  39 NW6       29.98F
$$




USA.gov is the U.S. government's official web portal to all federal, state and local government web resources and services.